TimeEDT,TemperatureF,Dew PointF,Humidity,Sea Level PressureIn,VisibilityMPH,Wind Direction,Wind SpeedMPH,Gust SpeedMPH,PrecipitationIn,Events,Conditions,WindDirDegrees,DateUTC
12:28 AM,41.0,37.4,87,29.79,7.0,WNW,4.6,-,0.03,Rain,Light Rain,290,2012-10-29 04:28:00
12:51 AM,41.0,37.0,86,29.82,7.0,Calm,Calm,-,0.04,Rain,Light Rain,0,2012-10-29 04:51:00
1:51 AM,41.0,37.0,86,29.80,8.0,NNW,4.6,-,0.03,Rain,Light Rain,330,2012-10-29 05:51:00
2:51 AM,39.9,37.0,89,29.79,6.0,NW,4.6,-,0.02,Rain,Light Rain,320,2012-10-29 06:51:00
3:51 AM,39.9,37.0,89,29.77,5.0,NW,4.6,-,0.04,Rain,Light Rain,320,2012-10-29 07:51:00
4:51 AM,39.0,36.0,89,29.77,5.0,WNW,5.8,-,0.01,Rain,Light Rain,300,2012-10-29 08:51:00
5:04 AM,39.2,35.6,87,29.73,6.0,Calm,Calm,-,0.01,Rain,Light Rain,0,2012-10-29 09:04:00
5:29 AM,39.2,35.6,87,29.73,10.0,NW,8.1,-,0.01,Rain,Light Rain,310,2012-10-29 09:29:00
5:51 AM,39.0,36.0,89,29.77,4.0,NW,4.6,-,0.01,Rain,Light Rain,320,2012-10-29 09:51:00
5:59 AM,39.2,35.6,87,29.73,4.0,NNW,5.8,-,N/A,Rain,Light Rain,330,2012-10-29 09:59:00
6:09 AM,39.2,35.6,87,29.72,4.0,NW,8.1,-,0.01,Rain,Light Rain,310,2012-10-29 10:09:00
6:22 AM,39.2,35.6,87,29.72,5.0,WNW,8.1,16.1,0.01,Rain,Light Rain,300,2012-10-29 10:22:00
6:37 AM,39.2,35.6,87,29.72,5.0,WNW,8.1,-,0.01,Rain,Light Rain,300,2012-10-29 10:37:00
6:51 AM,39.0,36.0,89,29.76,5.0,WNW,6.9,-,0.01,Rain,Light Rain,300,2012-10-29 10:51:00
7:20 AM,37.4,35.6,93,29.72,4.0,West,3.5,-,0.00,Rain,Light Rain,270,2012-10-29 11:20:00
7:36 AM,37.4,35.6,93,29.71,5.0,West,5.8,-,0.00,Rain,Light Rain,270,2012-10-29 11:36:00
7:51 AM,37.0,35.1,93,29.75,4.0,West,6.9,-,0.00,Rain,Light Rain,280,2012-10-29 11:51:00
8:01 AM,37.4,33.8,87,29.71,5.0,WNW,8.1,-,0.00,Rain,Light Rain,290,2012-10-29 12:01:00
8:51 AM,37.0,34.0,89,29.75,5.0,Variable,4.6,-,0.01,Rain,Light Rain,0,2012-10-29 12:51:00
9:51 AM,37.0,34.0,89,29.74,5.0,WNW,3.5,-,0.00,Rain,Light Rain,300,2012-10-29 13:51:00
10:51 AM,36.0,33.1,89,29.72,5.0,Variable,4.6,-,0.02,Rain,Light Rain,0,2012-10-29 14:51:00
11:51 AM,36.0,32.0,86,29.70,5.0,NW,5.8,-,0.03,Rain,Light Rain,310,2012-10-29 15:51:00
12:51 PM,36.0,32.0,86,29.67,5.0,Variable,3.5,-,0.02,Rain,Light Rain,0,2012-10-29 16:51:00
1:51 PM,35.1,32.0,89,29.63,4.0,NW,3.5,-,0.03,Snow,Light Snow,310,2012-10-29 17:51:00
2:51 PM,34.0,30.9,89,29.60,1.5,Calm,Calm,-,0.04,Snow,Light Snow,0,2012-10-29 18:51:00
3:44 PM,33.8,32.0,93,29.50,0.8,Calm,Calm,-,0.06,Snow,Light Snow,0,2012-10-29 19:44:00
3:51 PM,33.1,32.0,96,29.54,0.8,Calm,Calm,-,0.07,Snow,Light Snow,0,2012-10-29 19:51:00
3:58 PM,33.8,30.2,87,29.49,1.0,Variable,3.5,-,0.02,Snow,Light Snow,0,2012-10-29 19:58:00
4:51 PM,33.8,32.0,93,29.47,1.0,Calm,Calm,-,N/A,Snow,Light Snow,0,2012-10-29 20:51:00
5:07 PM,33.8,32.0,93,29.46,0.8,NNW,5.8,-,0.03,Snow,Light Snow,340,2012-10-29 21:07:00
5:18 PM,33.8,32.0,93,29.45,0.5,Calm,Calm,-,0.06,Fog-Snow,Snow,0,2012-10-29 21:18:00
5:51 PM,33.1,32.0,96,29.48,0.5,Calm,Calm,-,0.16,Fog-Snow,Snow,0,2012-10-29 21:51:00
6:51 PM,33.1,30.9,92,29.46,0.5,Calm,Calm,-,0.20,Fog-Snow,Snow,0,2012-10-29 22:51:00
7:23 PM,33.8,30.2,87,29.38,1.0,NW,10.4,40.3,0.09,Snow,Light Snow,310,2012-10-29 23:23:00
7:51 PM,34.0,30.9,89,29.41,1.5,Variable,6.9,17.3,0.15,Snow,Light Snow,0,2012-10-29 23:51:00
8:28 PM,33.8,30.2,87,29.34,1.5,WNW,4.6,18.4,0.06,Snow,Light Snow,290,2012-10-30 00:28:00
8:51 PM,34.0,30.9,89,29.38,1.5,NW,10.4,17.3,0.08,Snow,Light Snow,310,2012-10-30 00:51:00
9:51 PM,33.1,30.9,92,29.34,1.2,Variable,4.6,18.4,0.08,Snow,Light Snow,0,2012-10-30 01:51:00
10:37 PM,33.8,30.2,87,29.27,2.0,WNW,10.4,23.0,0.05,Snow,Light Snow,300,2012-10-30 02:37:00
10:51 PM,34.0,30.9,89,29.31,2.0,Variable,6.9,21.9,0.06,Snow,Light Snow,0,2012-10-30 02:51:00
11:14 PM,33.8,30.2,87,29.24,2.5,West,9.2,24.2,0.02,Snow,Light Snow,270,2012-10-30 03:14:00
11:40 PM,33.8,30.2,87,29.22,2.5,WNW,10.4,17.3,N/A,Snow,Light Snow,290,2012-10-30 03:40:00
11:51 PM,34.0,30.9,89,29.25,1.8,West,8.1,24.2,0.05,Snow,Light Snow,270,2012-10-30 03:51:00